Location: Milo
(50.5667°N, 112.8833°W)
Time: 07:28:04
(UTC+00:00)

N. Korean satellite - Pass Details

Date: 06 December 2021
Orbit: 446 x 491 km, 97.3° (Epoch: 18 January)

Event Time Altitude Azimuth Distance (km) Brightness Sun altitude
Rises 11:37:49 0° 33° (NNE) 2,466 10.6 -33.7°
Reaches altitude 10° 11:41:23 10° 73° (ENE) 1,581 10.0 -33.2°
Maximum altitude 11:42:13 11° 88° (E) 1,535 9.9 -33.0°
Drops below altitude 10° 11:43:04 10° 103° (ESE) 1,577 9.9 -32.9°
Sets 11:46:33 0° 143° (SE) 2,429 10.5 -32.3°
